Погода в Саме

Погода в Саме : погода сейчас, прогноз погоды и архив. Всё, что Вы хотите узнать о погоде в Саме!

Поиск расширенной информации на нашем сайте:

Другие новости

Новости СМИ2

Главная страница сайта

Новости сайта

03.07.2017

Напоминаем, что на нашем специализированном сайте Метеоцентр.Азия вы можете получить высокодетализированные автоматические прогнозы погоды по пунктам России, СНГ и мира в авиационном формате (включающие направление и скорость ветра, видимость, явления погоды, количество и форму облачности, нижнюю и верхнюю границу облачности).


Погода в Саме - сегодня

Время (UTC), дата Ветер
(°,м/с) 
Видим.   Явления Облачность Т
(°С)
Тd
(°С)
f(%) Тe
(°С)
Pmin
(гПа)
dP
(гПа)
Po
(мм)
O2
(г/м3)
Тmin Tmax R s Состояние
почвы
12 20.10.17 200 (Ю) 20000 м    5/5 1000 м 
[Sc]
+16.6 +6.2 50 +16  1018.1  -0.6  756  286           
15 20.10.17 200 (Ю) н/о    8/8 1000 м 
[Sc]
+14.3 +5.5 55 +14  1017.4  -0.8  756  288    +17.1       
18 20.10.17 200 (Ю) н/о    10/10 1000 м 
[Sc]
+13.2 +6.2 62 +13  1017.1  -0.3  755  288    +17.1       
21 20.10.17 200 (Ю) н/о    10/10 1000 м 
[Sc]
+11.2 +6.1 71 +11  1016.8  -0.4  755  291           
00 21.10.17 200 (Ю) н/о    10/10 1000 м 
[Sc]
+9 +6.4 84 +10  1015.9  -0.9  754  293           
03 21.10.17 270 (З) н/о    10/10 1000 м 
[Sc]
+9.5 +7.5 87 +11  1016  0.1  754  292           
06 21.10.17 270 (З) 20000 м    6/0 средняя 
[Ac lent]
+12.9 +9.2 78 +14  1016.6  0.6  755  288  +6.7         
09 21.10.17 270 (З) 20000 м    10/10 600 м 
[Sc]
+15.6 +9.2 66 +16  1015.4  -0.9  754  285           
12 21.10.17 270 (З) 20000 м    10/10 600 м 
[Sc|Ns]
+13.2 +10.3 83 +14  1015.4  -0.1  754  288           
15 21.10.17 320 (СЗ) н/о    10/10 600 м 
[Sc]
+12.4 +9.4 82 +13  1016.4  0.8  755  289    +16.2       
18 21.10.17 320 (СЗ) н/о    10/10 600 м 
[Sc]
+11.5 +5.8 68 +13  1016.6  0.2  755  290    +16.2       
21 21.10.17 320 (СЗ) н/о    10/10 600 м 
[Sc]
+10.3 +5.8 74 +11  1016.6  755  292           
00 22.10.17 070 (В) н/о    10/10 600 м 
[Sc]
+9.5 +4.6 71 +9  1016  -0.6  754  293           
03 22.10.17 110 (В) 20000 м    10/10 600 м 
[Sc]
+10 +6.8 80 +9  1015.9  -0.1  754  291           
06 22.10.17 160 (Ю) 4000 м  дымка  10/10 600 м 
[St]
+12.3 +9.5 83 +12  1015.6  -0.2  754  288  +9.4         
09 22.10.17 230 (ЮЗ) 20000 м    4/4 600 м 
[Sc diur, vesp]
+17 +8.9 59 +17  1013.2  -2.1  753  283           
12 22.10.17 230 (ЮЗ) 20000 м    9/9 600 м 
[Sc diur, vesp]
+17.2 +7.3 52 +17  1012  -1.2  751  284           
15 22.10.17 200 (Ю) н/о    10/10 600 м 
[Sc]
+15.3 +7 58 +15  1012.3  0.2  752  285    +18       
18 22.10.17 180 (Ю) н/о    10/10 600 м 
[Sc]
+14.8 +8 64 +15  1011  -1.4  751  285    +18       
21 22.10.17 180 (Ю) н/о    9/9 600 м 
[Sc]
+13.5 +8.9 74 +13  1009.7  -1.3  750  286           
00 23.10.17 180 (Ю) н/о    10/10 600 м 
[Sc]
+11.8 +8.5 80 +12  1008.8  -1  749  288           
03 23.10.17 тихо ()   20000 м    10/10 600 м 
[Sc]
+9.9 +7.6 86 +10  1008.6  -0.2  749  289           
06 23.10.17 270 (З) 20000 м    6/0 средняя 
[Ac cuf]
+12.7 +8.5 76 +13  1009.6  750  287  +9.8         
09 23.10.17 290 (З) 20000 м    10/10 1000 м кучево-дожд. 
[Cb cap]
+11.8 +8.1 78 +10  1010.5  0.9  750  288           
12 23.10.17 290 (З) 20000 м    10/10 1000 м кучево-дожд. 
[Cb cap]
+6.7 +2.9 77 +4  1015.1  4.4  753  296           
Время (UTC), дата Ветер
(°,м/с) 
Видим.   Явления Облачность Т
(°С)
Тd
(°С)
f(%) Тe
(°С)
Pmin
(гПа)
dP
(гПа)
Po
(мм)
O2
(г/м3)
Тmin Tmax R s Состояние
почвы

Для получения пояснительной информации подведите курсор к названию столбца.

ПОГОДА в Саме - архив

Всё, что Вы хотите узнать о погоде в Саме - удобно и подробно!

Выберите нужную дату (начиная с 1 января 2015* года) и нажмите кнопку "Найти".
Будут отображены архивные сводки погоды по пункту Сам, начиная с указанной даты.


Отображать данные в формате CSV (для использования в таблицах Excel)


Внимание! Наш архив погоды предназначен исключительно для личного некоммерческого использования в познавательных целях. Если Вам необходимы официальные справки о состоянии погоды (для производственных, юридических, коммерческих и т.п. целей), обращайтесь в органы Росгидромета.

*Примечание: данная дата относится к архиву по метеостанциям СССР (Россия, СНГ, Балтия).
Архив по метеостанциям Зарубежной Европы и Азии (кроме Китая) хранится 10 дней, по другим регионам земного шара (Китай, Африка, Америка, Австралия, Океания) - 1 день.

Сам - район местоположения метеостанции


Название, широта, долгота, высота метеостанции:
Сам 45.4°ш. 56.1°д. 82 м над ур. моря [Казахстан]

Дополнительная информация

В oтличие oт бoльшинства пoгoдных сайтoв мы публикуем пoдрoбную метеoинфoрмацию в детальнoм прoфессиoнальнoм фoрмате.

Характеристики температуры и влажнoсти вoздуха измеряются на высoте 2 м в тени вдали oт зданий и деревьев.
Скoрoсть ветра измеряется на высoте 10 м (на урoвне рoста челoвека скoрoсть ветра ниже в 1.5-2 раза). Если метеoстанция нахoдится в гoрoде или в лесу, тo скoрoсть ветра занижена на 2-4 м/с пo сравнению с oткрытым местoм. Скoрoсть ветра над акватoриями крупных рек и oзёр, а также на вершинах хoлмoв на 2-5 м/с выше, чем в oбычных услoвиях.
Атмoсфернoе давление в разных тoчках местнoсти мoжет значительнo oтличаться oт давления на метеoстанции, в зависимoсти oт услoвий рельефа (при пoдъёме на 10 м давление пoнижается примернo на 1 мм рт.ст.).